| time (UTC) | temp C | wind direction | speed KPH | gust KPH | rain 1hr cm | rain 24hr cm | rain mn cm | humidity % | barometer mb |
| 20260507223616 | 21 | 135 | 0.0 | 0.0 | 0.00 | 0.00 | 0.00 | 55 | 999.0 |
| 20260507222629 | 21 | 135 | 0.0 | 0.0 | 0.00 | 0.00 | 0.00 | 57 | 999.0 |
| 20260507221129 | 21 | 135 | 0.0 | 0.0 | 0.00 | 0.00 | 0.00 | 60 | 999.0 |
| 20260507220616 | 21 | 135 | 0.0 | 0.0 | 0.00 | 0.00 | 0.00 | 61 | 999.0 |
| 20260507215630 | 21 | 135 | 0.0 | 0.0 | 0.00 | 0.00 | 0.00 | 62 | 999.0 |
| 20260507214131 | 20 | 135 | 0.0 | 0.0 | 0.00 | 0.00 | 0.00 | 63 | 1000.0 |
| 20260507213616 | 20 | 135 | 0.0 | 0.0 | 0.00 | 0.00 | 0.00 | 63 | 1000.0 |
| 20260507212631 | 20 | 135 | 0.0 | 0.0 | 0.00 | 0.00 | 0.00 | 64 | 1000.0 |
| 20260507211131 | 20 | 135 | 0.0 | 4.8 | 0.00 | 0.00 | 0.00 | 64 | 999.0 |
| 20260507210616 | 20 | 135 | 0.0 | 0.0 | 0.00 | 0.00 | 0.00 | 65 | 1000.0 |
| 20260507205630 | 20 | 135 | 0.0 | 3.2 | 0.00 | 0.00 | 0.00 | 65 | 1000.0 |
| 20260507204131 | 20 | 135 | 0.0 | 3.2 | 0.00 | 0.00 | 0.00 | 66 | 1000.0 |
| 20260507203615 | 20 | 135 | 1.6 | 9.7 | 0.00 | 0.00 | 0.00 | 66 | 1000.0 |
| 20260507202629 | 20 | 135 | 0.0 | 4.8 | 0.00 | 0.00 | 0.00 | 66 | 1000.0 |
| 20260507201129 | 20 | 135 | 0.0 | 9.7 | 0.00 | 0.00 | 0.00 | 65 | 1000.0 |
| 20260507200616 | 20 | 135 | 1.6 | 8.0 | 0.00 | 0.00 | 0.00 | 65 | 1000.0 |
| 20260507195629 | 20 | 135 | 0.0 | 0.0 | 0.00 | 0.00 | 0.00 | 65 | 1000.0 |
| 20260507194131 | 20 | 135 | 0.0 | 3.2 | 0.00 | 0.00 | 0.00 | 65 | 1000.0 |
| 20260507193616 | 20 | 135 | 0.0 | 0.0 | 0.00 | 0.00 | 0.00 | 66 | 1000.0 |
| 20260507192630 | 20 | 135 | 0.0 | 8.0 | 0.00 | 0.00 | 0.00 | 67 | 1000.0 |
| 20260507191130 | 20 | 135 | 0.0 | 0.0 | 0.00 | 0.00 | 0.00 | 67 | 1000.0 |
| 20260507190615 | 20 | 135 | 0.0 | 4.8 | 0.00 | 0.00 | 0.00 | 67 | 1000.0 |
| 20260507185630 | 20 | 135 | 1.6 | 3.2 | 0.00 | 0.00 | 0.00 | 67 | 1000.0 |
| 20260507184132 | 20 | 135 | 0.0 | 9.7 | 0.00 | 0.00 | 0.00 | 65 | 1000.0 |
| 20260507183619 | 20 | 135 | 0.0 | 8.0 | 0.00 | 0.00 | 0.00 | 65 | 1000.0 |
| 20260507182633 | 20 | 135 | 0.0 | 0.0 | 0.00 | 0.00 | 0.00 | 65 | 1000.0 |
| 20260507180619 | 20 | 135 | 3.2 | 8.0 | 0.00 | 0.00 | 0.00 | 66 | 1000.0 |
| 20260507175632 | 20 | 180 | 0.0 | 3.2 | 0.00 | 0.00 | 0.00 | 67 | 1000.0 |
| 20260507174131 | 20 | 180 | 0.0 | 0.0 | 0.00 | 0.00 | 0.00 | 68 | 1000.0 |
| 20260507173619 | 20 | 180 | 0.0 | 0.0 | 0.00 | 0.00 | 0.00 | 68 | 1000.0 |
| 20260507172631 | 20 | 180 | 0.0 | 3.2 | 0.00 | 0.00 | 0.00 | 69 | 1000.0 |
| 20260507171131 | 20 | 180 | 0.0 | 0.0 | 0.00 | 0.00 | 0.00 | 70 | 1000.0 |
| 20260507170618 | 19 | 180 | 0.0 | 0.0 | 0.00 | 0.00 | 0.00 | 71 | 1000.0 |
| 20260507165632 | 19 | 180 | 0.0 | 0.0 | 0.00 | 0.00 | 0.00 | 71 | 1000.0 |
| 20260507164131 | 19 | 180 | 0.0 | 0.0 | 0.00 | 0.00 | 0.00 | 72 | 1000.0 |
| 20260507163618 | 19 | 180 | 0.0 | 0.0 | 0.00 | 0.00 | 0.00 | 72 | 1001.0 |
| 20260507162633 | 19 | 180 | 0.0 | 0.0 | 0.00 | 0.00 | 0.00 | 71 | 1001.0 |
| 20260507161133 | 19 | 180 | 0.0 | 0.0 | 0.00 | 0.00 | 0.00 | 72 | 1001.0 |
| 20260507160618 | 19 | 180 | 0.0 | 0.0 | 0.00 | 0.00 | 0.00 | 72 | 1001.0 |
| 20260507155633 | 19 | 180 | 0.0 | 0.0 | 0.00 | 0.00 | 0.00 | 72 | 1001.0 |
| 20260507154132 | 19 | 180 | 1.6 | 3.2 | 0.00 | 0.00 | 0.00 | 70 | 1002.0 |
| 20260507153618 | 19 | 180 | 0.0 | 0.0 | 0.00 | 0.00 | 0.00 | 70 | 1001.0 |
| 20260507152633 | 20 | 180 | 0.0 | 0.0 | 0.00 | 0.00 | 0.00 | 69 | 1001.0 |
| 20260507151132 | 20 | 180 | 0.0 | 0.0 | 0.00 | 0.00 | 0.00 | 68 | 1002.0 |
| 20260507150617 | 20 | 180 | 0.0 | 0.0 | 0.00 | 0.00 | 0.00 | 67 | 1001.0 |
| 20260507145632 | 20 | 180 | 0.0 | 0.0 | 0.00 | 0.00 | 0.00 | 67 | 1001.0 |
| 20260507144132 | 20 | 180 | 0.0 | 0.0 | 0.00 | 0.00 | 0.00 | 65 | 1002.0 |
| 20260507143617 | 20 | 180 | 0.0 | 0.0 | 0.00 | 0.00 | 0.00 | 64 | 1002.0 |
| 20260507142632 | 20 | 180 | 0.0 | 0.0 | 0.00 | 0.00 | 0.00 | 64 | 1002.0 |
| 20260507141132 | 20 | 225 | 0.0 | 0.0 | 0.00 | 0.00 | 0.00 | 63 | 1002.0 |
| 20260507140619 | 20 | 180 | 1.6 | 3.2 | 0.00 | 0.00 | 0.00 | 63 | 1002.0 |
| 20260507135631 | 20 | 180 | 0.0 | 0.0 | 0.00 | 0.00 | 0.00 | 63 | 1002.0 |
| 20260507134132 | 20 | 180 | 0.0 | 4.8 | 0.00 | 0.00 | 0.00 | 62 | 1002.0 |
| 20260507133618 | 20 | 270 | 0.0 | 0.0 | 0.00 | 0.00 | 0.00 | 62 | 1003.0 |
| 20260507132631 | 20 | 225 | 0.0 | 0.0 | 0.00 | 0.00 | 0.00 | 62 | 1002.2 |
| 20260507131131 | 20 | 225 | 0.0 | 0.0 | 0.00 | 0.00 | 0.00 | 61 | 1002.0 |
| 20260507130618 | 21 | 225 | 0.0 | 0.0 | 0.00 | 0.00 | 0.00 | 61 | 1002.0 |
| 20260507125632 | 21 | 225 | 0.0 | 0.0 | 0.00 | 0.00 | 0.00 | 59 | 1002.0 |
| 20260507124131 | 21 | 180 | 0.0 | 0.0 | 0.00 | 0.00 | 0.00 | 57 | 1002.0 |
| 20260507123618 | 21 | 270 | 0.0 | 0.0 | 0.00 | 0.00 | 0.00 | 57 | 1002.0 |
| 20260507122630 | 21 | 270 | 1.6 | 3.2 | 0.00 | 0.00 | 0.00 | 56 | 1002.0 |
| 20260507121132 | 21 | 270 | 0.0 | 0.0 | 0.00 | 0.00 | 0.00 | 53 | 1002.0 |
| 20260507120617 | 21 | 201 | 0.0 | 0.0 | 0.00 | 0.00 | 0.00 | 53 | 1002.0 |
| 20260507115632 | 21 | 268 | 0.0 | 3.2 | 0.00 | 0.00 | 0.00 | 52 | 1002.0 |
| 20260507114131 | 21 | 152 | 1.6 | 4.8 | 0.00 | 0.00 | 0.00 | 51 | 1002.0 |
| 20260507113617 | 21 | 213 | 4.8 | 8.0 | 0.00 | 0.00 | 0.00 | 50 | 1002.0 |
| 20260507112632 | 21 | 226 | 0.0 | 4.8 | 0.00 | 0.00 | 0.00 | 49 | 1002.0 |
| 20260507111132 | 21 | 312 | 0.0 | 4.8 | 0.00 | 0.00 | 0.00 | 47 | 1002.0 |
| 20260507110617 | 21 | 252 | 1.6 | 8.0 | 0.00 | 0.00 | 0.00 | 47 | 1002.0 |
| 20260507105632 | 21 | 234 | 1.6 | 4.8 | 0.00 | 0.00 | 0.00 | 46 | 1002.0 |
| 20260507104131 | 22 | 279 | 4.8 | 8.0 | 0.00 | 0.00 | 0.00 | 45 | 1002.0 |
| 20260507103617 | 22 | 249 | 8.0 | 4.8 | 0.00 | 0.00 | 0.00 | 45 | 1002.0 |
| 20260507102632 | 22 | 270 | 9.7 | 9.7 | 0.00 | 0.00 | 0.00 | 43 | 1002.0 |
| 20260507101132 | 22 | 199 | 4.8 | 8.0 | 0.00 | 0.00 | 0.00 | 41 | 1001.0 |
| 20260507100618 | 22 | 242 | 8.0 | 9.7 | 0.00 | 0.00 | 0.00 | 40 | 1001.0 |
| 20260507095631 | 22 | 294 | 8.0 | 9.7 | 0.00 | 0.00 | 0.00 | 37 | 1001.0 |
| 20260507093618 | 23 | 207 | 4.8 | 9.7 | 0.00 | 0.00 | 0.00 | 36 | 1001.0 |
| 20260507092631 | 23 | 144 | 8.0 | 9.7 | 0.00 | 0.00 | 0.00 | 33 | 1001.0 |
| 20260507091131 | 24 | 168 | 4.8 | 8.0 | 0.00 | 0.00 | 0.00 | 31 | 1001.2 |
| 20260507090618 | 24 | 262 | 4.8 | 14.5 | 0.00 | 0.00 | 0.00 | 31 | 1001.0 |
| 20260507085630 | 25 | 208 | 4.8 | 8.0 | 0.00 | 0.00 | 0.00 | 24 | 1001.0 |
| 20260507084131 | 26 | 188 | 4.8 | 9.7 | 0.00 | 0.00 | 0.00 | 24 | 1001.0 |
| 20260507083617 | 26 | 249 | 4.8 | 8.0 | 0.00 | 0.00 | 0.00 | 24 | 1002.0 |
| 20260507082632 | 26 | 219 | 9.7 | 3.2 | 0.00 | 0.00 | 0.00 | 24 | 1002.0 |
| 20260507081133 | 28 | 154 | 3.2 | 4.8 | 0.00 | 0.00 | 0.00 | 23 | 1002.0 |
| 20260507080617 | 27 | 226 | 8.0 | 9.7 | 0.00 | 0.00 | 0.00 | 24 | 1002.0 |
| 20260507075632 | 28 | 196 | 4.8 | 8.0 | 0.00 | 0.00 | 0.00 | 23 | 1002.0 |
| 20260507073617 | 30 | 315 | 1.6 | 9.7 | 0.00 | 0.00 | 0.00 | 19 | 1002.0 |
| 20260507072631 | 29 | 137 | 4.8 | 8.0 | 0.00 | 0.00 | 0.00 | 19 | 1002.0 |
| 20260507070616 | 30 | 315 | 3.2 | 9.7 | 0.00 | 0.00 | 0.00 | 19 | 1001.0 |
| 20260507065631 | 29 | 249 | 8.0 | 9.7 | 0.00 | 0.00 | 0.00 | 19 | 1001.0 |
| 20260507064132 | 29 | 283 | 8.0 | 12.9 | 0.00 | 0.00 | 0.00 | 19 | 1001.0 |
| 20260507063618 | 30 | 270 | 4.8 | 9.7 | 0.00 | 0.00 | 0.00 | 19 | 1001.0 |
| 20260507062631 | 30 | 270 | 1.6 | 4.8 | 0.00 | 0.00 | 0.00 | 18 | 1001.0 |
| 20260507060618 | 30 | 211 | 4.8 | 4.8 | 0.00 | 0.00 | 0.00 | 18 | 1001.0 |
| 20260507055631 | 31 | 270 | 3.2 | 4.8 | 0.00 | 0.00 | 0.00 | 18 | 1001.0 |
| 20260507054131 | 30 | 270 | 4.8 | 8.0 | 0.00 | 0.00 | 0.00 | 18 | 1001.0 |
| 20260507053617 | 31 | 270 | 0.0 | 0.0 | 0.00 | 0.00 | 0.00 | 19 | 1002.0 |
| 20260507052630 | 30 | 270 | 1.6 | 4.8 | 0.00 | 0.00 | 0.00 | 19 | 1002.0 |
| 20260507051130 | 29 | 270 | 8.0 | 11.3 | 0.00 | 0.00 | 0.00 | 19 | 1002.0 |
| 20260507050617 | 30 | 270 | 4.8 | 4.8 | 0.00 | 0.00 | 0.00 | 19 | 1002.0 |
| 20260507045632 | 29 | 135 | 1.6 | 3.2 | 0.00 | 0.00 | 0.00 | 19 | 1002.8 |
| 20260507044131 | 28 | 270 | 3.2 | 8.0 | 0.00 | 0.00 | 0.00 | 19 | 1003.0 |
| 20260507043617 | 29 | 270 | 4.8 | 8.0 | 0.00 | 0.00 | 0.00 | 19 | 1003.0 |
| 20260507042632 | 30 | 270 | 1.6 | 9.7 | 0.00 | 0.00 | 0.00 | 19 | 1003.0 |
| 20260507040616 | 29 | 270 | 3.2 | 3.2 | 0.00 | 0.00 | 0.00 | 20 | 1003.0 |
| 20260507035631 | 28 | 270 | 0.0 | 0.0 | 0.00 | 0.00 | 0.00 | 20 | 1003.0 |
| 20260507034130 | 27 | 270 | 4.8 | 8.0 | 0.00 | 0.00 | 0.00 | 21 | 1003.0 |
| 20260507033616 | 28 | 270 | 4.8 | 8.0 | 0.00 | 0.00 | 0.00 | 21 | 1003.0 |
| 20260507032631 | 28 | 270 | 0.0 | 0.0 | 0.00 | 0.00 | 0.00 | 21 | 1003.0 |
| 20260507031131 | 27 | 270 | 0.0 | 0.0 | 0.00 | 0.00 | 0.00 | 22 | 1003.0 |
| 20260507030618 | 26 | 270 | 4.8 | 9.7 | 0.00 | 0.00 | 0.00 | 23 | 1004.0 |
| 20260507025631 | 27 | 218 | 3.2 | 9.7 | 0.00 | 0.00 | 0.00 | 22 | 1004.0 |
| 20260507024132 | 27 | 135 | 0.0 | 0.0 | 0.00 | 0.00 | 0.00 | 24 | 1004.0 |
| 20260507023617 | 27 | 135 | 3.2 | 4.8 | 0.00 | 0.00 | 0.00 | 24 | 1004.0 |
| 20260507022637 | 26 | 135 | 0.0 | 0.0 | 0.00 | 0.00 | 0.00 | 27 | 1004.0 |
| 20260507021138 | 26 | 180 | 0.0 | 0.0 | 0.00 | 0.00 | 0.00 | 30 | 1005.0 |
| 20260507020617 | 26 | 168 | 0.0 | 0.0 | 0.00 | 0.00 | 0.00 | 30 | 1005.0 |
| 20260507014131 | 25 | 225 | 0.0 | 0.0 | 0.00 | 0.00 | 0.00 | 32 | 1005.0 |
| 20260507013617 | 25 | 180 | 0.0 | 0.0 | 0.00 | 0.00 | 0.00 | 33 | 1005.0 |
| 20260507012631 | 24 | 180 | 0.0 | 0.0 | 0.00 | 0.00 | 0.00 | 36 | 1005.0 |
| 20260507011130 | 23 | 135 | 0.0 | 0.0 | 0.00 | 0.00 | 0.00 | 37 | 1005.0 |
| 20260507010617 | 23 | 135 | 0.0 | 3.2 | 0.00 | 0.00 | 0.00 | 37 | 1005.0 |
| 20260507005631 | 23 | 135 | 0.0 | 0.0 | 0.00 | 0.00 | 0.00 | 38 | 1005.0 |
| 20260507004131 | 22 | 135 | 0.0 | 0.0 | 0.00 | 0.00 | 0.00 | 39 | 1005.0 |
| 20260507003617 | 22 | 135 | 0.0 | 0.0 | 0.00 | 0.00 | 0.00 | 40 | 1005.0 |
| 20260507002630 | 22 | 135 | 0.0 | 0.0 | 0.00 | 0.00 | 0.00 | 42 | 1005.0 |
| 20260507001150 | 21 | 135 | 0.0 | 0.0 | 0.00 | 0.00 | 0.00 | 43 | 1005.0 |
| 20260507000617 | 21 | 135 | 0.0 | 0.0 | 0.00 | 0.00 | 0.00 | 43 | 1005.0 |
| 20260506235641 | 21 | 135 | 0.0 | 0.0 | 0.00 | 0.00 | 0.00 | 44 | 1005.0 |
| 20260506234130 | 21 | 135 | 0.0 | 0.0 | 0.00 | 0.00 | 0.00 | 45 | 1005.0 |
| 20260506233617 | 21 | 135 | 0.0 | 3.2 | 0.00 | 0.00 | 0.00 | 45 | 1005.0 |
| 20260506232630 | 20 | 135 | 0.0 | 0.0 | 0.00 | 0.00 | 0.00 | 46 | 1005.0 |
| 20260506230617 | 20 | 135 | 0.0 | 0.0 | 0.00 | 0.00 | 0.00 | 48 | 1006.0 |